Location: ??????
(38.3184°N, 23.6932°E)
Time: 02:40:06
(UTC+00:00)

Cosmos 1455 Rocket - Pass Details

Date: 16 October 2021
Orbit: 604 x 630 km, 82.5° (Epoch: 04 December)

Event Time Altitude Azimuth Distance (km) Brightness Sun altitude
Rises 16:28:05 0° 163° (SSE) 2,870 6.4 -9.0°
Reaches altitude 10° 16:30:28 10° 153° (SSE) 1,974 5.4 -9.5°
Maximum altitude 16:34:21 32° 90° (E) 1,064 3.7 -10.3°
Drops below altitude 10° 16:38:18 10° 28° (NNE) 2,002 5.4 -11.0°
Sets 16:40:43 0° 18° (NNE) 2,917 6.3 -11.5°
